Wind_Speed
25 25 25 25 25 25 25 25 26 26 25 25 26 26 25 24 24 23 22 25 29 31 31 33 34 34 34 30 27 25 24 23 21 20 20 19 18 17 17 17 18 17 17 17 18 18 18 18 18 18 17 16 16 16 16 16 16 17 17 17 18 17 17 18 15 16 19 16 14 15 15 15 16 15 15 16 15 14 14 14 15 16 17 18 20
23 23 22 22 22 23 22 22 23 23 23 24 24 25 24 23 23 22 22 25 29 32 32 32 32 33 33 30 27 25 23 22 21 21 20 19 19 18 17 18 18 18 18 18 19 18 18 18 18 18 18 18 18 17 17 17 16 17 17 16 18 17 17 18 17 16 19 17 14 15 15 15 16 16 15 16 15 14 15 16 16 16 17 18 20
19 20 20 19 20 20 20 20 20 21 22 22 23 23 23 22 22 22 22 24 27 29 31 31 32 33 32 30 28 25 23 22 22 21 21 20 20 19 19 19 19 19 19 19 19 19 19 19 19 19 18 19 19 19 18 18 18 18 18 18 18 18 18 18 19 18 19 19 16 16 16 16 17 16 15 15 15 15 16 17 17 17 18 18 20
16 17 17 17 17 17 17 18 18 19 20 21 21 21 21 21 21 21 21 22 25 26 27 30 31 31 30 28 26 25 23 22 22 21 21 20 20 20 19 19 19 19 19 19 19 19 19 20 19 19 19 19 20 19 19 19 18 18 19 18 19 19 19 19 20 20 20 19 18 17 17 17 17 16 15 15 16 17 17 17 17 18 18 19 20
14 14 15 15 15 15 16 16 17 19 19 19 19 19 20 19 19 20 20 21 23 24 25 27 29 30 29 27 24 23 23 22 21 21 21 20 20 20 20 19 19 19 19 19 20 20 20 21 21 20 21 21 20 20 20 19 19 18 18 18 18 19 19 19 21 21 21 21 19 18 18 18 17 16 15 16 17 17 17 18 18 18 18 19 20
12 12 12 13 13 14 15 15 16 17 18 17 17 17 18 18 18 19 20 20 21 23 24 26 27 28 27 25 23 22 21 21 21 21 20 20 20 20 20 19 19 19 19 19 20 20 21 21 22 22 23 24 23 22 22 21 21 20 20 19 18 18 19 20 21 22 22 23 21 19 19 19 18 17 17 17 18 18 18 18 18 17 18 19 19
10 10 10 11 12 13 14 14 15 15 15 15 15 15 16 17 18 18 20 20 21 23 24 25 26 26 25 23 22 21 20 20 20 20 21 21 21 21 20 19 19 19 19 20 20 20 21 23 24 24 25 26 26 25 24 23 23 23 22 21 20 21 21 21 21 21 22 22 22 20 19 19 19 19 18 17 19 20 19 18 18 16 16 17 17
8 8 9 10 11 11 12 12 12 12 12 12 13 13 14 16 17 17 19 21 23 23 24 24 24 23 22 21 19 19 19 20 19 20 21 22 22 21 19 19 19 19 19 19 20 22 23 25 26 26 27 28 28 28 27 27 25 24 23 22 21 21 21 21 21 21 21 21 20 20 20 20 20 19 18 17 19 19 18 18 18 17 16 16 16
7 7 8 9 9 9 9 9 10 10 10 11 11 12 14 15 16 17 19 21 22 22 23 22 22 21 20 19 17 17 18 19 20 21 22 23 23 22 20 19 20 20 20 21 22 23 25 27 28 28 29 29 29 31 31 31 29 28 27 25 23 21 20 20 20 20 20 20 20 19 19 19 19 18 18 18 18 18 17 18 19 18 17 18 18
5 6 6 7 7 7 7 7 8 8 9 10 11 12 13 14 16 18 19 19 20 20 21 22 22 21 20 18 17 17 17 19 21 22 22 22 23 23 23 23 22 22 23 23 24 26 27 28 30 30 29 29 29 30 30 30 29 30 29 27 26 24 22 21 21 20 19 19 19 18 18 18 18 18 19 19 18 18 18 18 18 18 17 18 17
4 4 4 5 5 6 6 6 7 7 8 9 10 12 13 14 16 17 17 18 19 21 21 21 21 20 19 18 18 18 19 21 23 22 20 19 21 22 23 25 25 26 27 26 27 29 30 30 31 32 31 31 31 31 30 29 29 30 30 28 27 27 25 23 22 22 21 20 20 19 19 19 19 19 19 19 18 18 18 18 17 17 16 15 14
2 3 3 3 4 4 5 5 6 7 8 9 10 12 13 14 16 17 17 18 19 20 21 21 19 19 19 19 20 20 22 23 23 21 20 20 21 21 22 23 24 26 28 30 32 33 33 32 32 34 35 36 36 35 35 34 33 32 32 32 32 32 31 28 25 24 23 22 21 21 20 20 20 21 20 19 19 19 19 18 18 17 17 16 16
1 2 2 2 2 3 3 4 5 6 8 9 10 12 14 15 16 16 16 17 18 19 19 19 18 19 19 21 22 22 23 24 22 20 20 21 22 22 22 22 22 22 24 28 31 33 34 32 29 30 33 36 36 37 38 38 38 36 35 34 35 35 36 36 33 30 27 25 23 24 25 24 22 21 20 19 19 19 19 19 19 19 19 19 19
1 2 1 2 3 4 5 5 5 6 8 9 10 13 14 15 15 15 16 16 17 17 16 17 18 19 20 21 23 24 25 25 23 20 20 21 21 22 23 23 23 23 23 24 25 27 29 28 26 26 28 30 32 34 35 36 37 37 37 36 36 35 36 37 37 36 34 31 28 27 29 30 28 26 24 22 22 22 21 21 20 20 21 21 21
3 2 3 4 7 7 6 6 5 6 7 9 11 13 14 15 15 15 15 14 14 15 15 16 18 19 20 22 22 24 25 24 22 21 21 21 21 21 22 22 22 22 23 24 24 24 24 25 26 27 27 27 29 30 32 33 34 35 36 37 38 37 36 36 37 37 38 37 35 32 31 31 31 31 29 27 28 27 26 26 24 23 23 23 22
3 4 5 7 8 8 6 5 5 6 8 10 11 12 13 15 15 13 13 12 12 13 14 16 18 19 21 22 22 24 24 23 22 20 20 21 20 19 19 20 20 21 22 24 24 24 22 22 24 24 25 25 26 26 28 29 32 35 36 37 37 37 38 38 37 36 37 38 39 38 36 33 32 32 31 31 31 30 28 28 28 26 24 22 21
4 5 7 7 7 8 6 5 6 7 9 10 12 12 13 14 13 12 12 12 12 14 15 17 18 20 21 22 22 24 24 24 22 21 20 20 19 17 17 17 18 19 21 22 21 21 22 23 24 23 24 25 25 26 28 29 30 33 36 37 36 36 38 39 37 37 38 40 40 39 39 38 37 36 35 35 36 33 29 26 26 25 22 17 15
5 5 5 4 6 8 7 7 8 9 10 11 13 13 13 13 12 12 13 13 14 15 16 17 18 19 21 22 23 23 24 25 23 20 19 19 19 18 16 17 17 18 20 21 21 21 23 24 25 26 27 28 27 28 30 30 29 29 32 35 35 35 37 38 36 36 37 38 39 38 38 39 39 38 37 37 35 33 31 28 26 26 24 18 16
5 4 4 4 6 8 8 8 9 10 11 13 13 14 13 12 11 11 13 14 14 14 14 14 15 15 17 20 21 22 24 25 24 21 19 19 19 17 16 17 18 18 20 21 21 22 23 24 25 28 30 30 30 31 31 31 30 29 28 29 30 33 36 37 35 35 35 36 38 38 39 39 38 36 36 36 36 34 32 30 26 22 20 19 19
5 6 6 6 8 8 8 9 10 11 13 13 14 14 12 11 11 12 13 13 12 12 12 12 13 13 14 16 18 21 23 25 25 23 20 20 20 19 18 19 19 18 19 21 22 23 23 23 24 27 28 30 32 34 35 34 34 33 30 27 26 28 31 31 31 32 33 35 37 38 39 38 36 35 35 34 35 35 33 31 26 19 16 16 17
7 8 7 7 8 8 8 9 10 11 13 13 14 13 13 13 13 13 14 12 11 12 12 12 12 14 15 16 19 21 23 25 27 25 22 21 21 21 21 21 22 20 19 20 22 24 24 24 24 25 26 28 30 32 34 34 33 34 33 33 33 33 31 29 29 30 30 30 31 32 32 31 30 31 31 30 31 32 32 32 30 26 23 20 18
8 6 5 6 7 7 9 10 10 12 13 13 14 14 14 14 15 15 14 12 12 15 16 14 13 14 16 17 20 22 24 26 27 26 23 21 20 21 22 22 23 22 20 20 23 24 24 24 24 24 25 26 27 30 33 33 34 34 33 32 35 36 34 30 28 27 26 26 25 25 25 24 23 23 25 25 26 27 30 32 32 31 30 28 25
6 5 5 6 7 8 9 10 11 12 13 13 14 14 13 14 15 15 16 15 14 16 18 18 17 16 17 17 18 20 23 26 27 26 25 23 21 21 22 23 24 24 24 22 22 24 25 25 25 25 26 27 28 31 32 32 32 33 31 30 31 33 33 32 29 27 25 24 24 25 24 24 23 23 23 23 23 24 26 29 30 31 31 31 29
6 7 7 8 10 10 10 11 11 12 12 13 14 14 14 14 14 14 15 15 14 14 15 15 14 14 15 16 16 17 19 23 25 25 24 23 22 21 22 23 24 25 25 24 23 23 23 25 25 26 28 29 31 33 33 32 32 31 29 28 27 27 26 25 22 21 20 20 21 23 24 24 24 24 23 23 22 22 24 25 25 26 27 28 27
9 10 10 10 11 11 11 11 12 12 13 13 14 14 13 14 14 13 12 12 12 12 13 13 13 13 14 14 14 14 14 17 21 23 23 23 23 22 21 22 23 23 23 25 24 23 24 26 28 29 30 31 31 30 28 27 27 25 23 19 17 15 15 13 11 12 14 15 16 18 20 21 22 22 22 21 20 19 20 22 22 22 23 24 25
11 11 11 12 11 12 12 11 11 12 13 14 15 14 12 11 11 11 11 12 12 12 13 13 13 14 14 14 14 14 13 14 17 19 21 23 23 21 19 19 20 21 22 24 24 24 26 28 28 29 30 29 27 25 23 21 21 20 19 16 13 11 12 12 12 13 15 16 16 16 17 17 18 19 20 21 21 19 19 20 20 20 20 21 22
11 11 10 9 10 10 11 10 9 10 11 13 15 15 14 13 12 11 12 12 12 13 13 13 13 13 14 14 14 14 14 14 15 16 18 20 21 20 20 20 21 21 22 24 25 25 27 27 27 29 30 29 28 26 25 24 23 22 21 20 19 17 16 17 17 17 17 17 18 18 17 17 17 17 19 22 24 23 21 20 19 18 18 18 18
11 10 10 10 9 8 8 9 9 9 10 11 12 12 13 13 13 13 14 13 13 13 13 14 14 14 13 13 14 14 15 15 14 14 16 18 20 20 21 22 23 23 24 25 25 26 28 28 27 27 27 27 26 25 24 23 23 22 22 22 22 23 23 22 21 21 20 19 18 18 17 17 18 18 18 20 23 23 21 21 20 19 19 17 17
11 11 11 10 8 7 7 8 8 9 9 11 12 12 14 14 14 15 16 17 17 17 16 15 16 15 14 14 14 13 14 16 16 16 18 21 22 22 23 24 25 26 27 28 25 24 23 23 22 22 22 22 22 21 22 22 22 22 23 23 23 23 22 22 22 22 21 20 19 19 19 19 20 19 18 18 19 19 19 20 20 21 20 19 18
10 9 8 7 6 6 7 7 8 9 9 10 11 13 14 15 16 17 18 19 20 20 19 19 19 17 16 18 19 19 21 24 24 23 24 25 24 23 24 25 25 26 26 26 23 21 18 18 19 19 20 20 20 21 21 21 21 22 23 23 23 23 22 22 22 22 21 20 19 19 19 19 19 20 19 18 18 19 20 20 20 20 19 19 18
8 7 7 7 7 7 8 8 8 9 9 10 11 11 12 13 14 16 18 19 19 19 20 21 22 21 20 22 25 26 26 27 26 25 26 26 24 22 22 21 21 22 22 22 22 20 17 16 18 21 21 21 21 22 21 21 22 22 22 22 24 24 24 24 24 23 22 21 20 20 19 20 20 19 19 19 18 19 19 20 20 19 18 18 17
7 7 7 7 8 8 8 8 8 8 9 9 10 10 11 12 12 12 13 15 17 18 19 20 21 22 23 23 24 24 22 21 21 22 24 24 23 23 22 22 23 24 24 23 22 22 20 18 18 19 21 21 22 22 22 22 22 22 22 22 22 23 24 25 25 24 23 22 21 20 19 20 20 20 19 19 19 18 18 19 19 19 18 18 17
8 8 8 8 8 8 8 8 8 8 8 8 9 9 9 10 11 11 11 12 14 16 18 20 21 21 22 22 23 22 20 19 19 20 22 24 25 25 25 24 24 24 22 21 20 21 22 22 21 21 20 21 20 20 20 21 22 22 22 22 21 22 23 23 22 23 23 22 21 20 19 19 19 19 18 18 18 18 18 18 18 18 18 17 17
8 8 8 8 9 8 8 7 8 8 8 9 10 10 10 10 11 12 13 13 13 13 14 16 17 18 19 19 20 21 21 20 19 20 21 22 23 23 22 22 22 22 20 19 19 20 19 18 18 18 17 15 13 11 11 13 14 15 16 16 16 16 15 15 17 18 17 15 16 16 16 15 16 15 15 16 16 16 17 17 17 17 17 16 16
10 10 9 10 10 9 8 8 8 8 9 9 10 11 11 11 12 13 14 14 14 14 13 13 13 14 16 16 17 18 20 20 19 19 19 19 19 19 19 19 18 17 17 16 16 17 16 14 13 14 14 13 12 11 11 11 11 11 11 10 10 10 8 8 12 15 13 10 11 13 13 12 12 12 12 14 15 15 15 16 17 17 17 17 16
12 10 9 9 9 8 8 9 9 9 9 11 11 11 12 13 13 13 14 14 15 16 16 14 13 14 14 15 16 17 18 17 17 17 18 18 18 18 16 14 14 14 15 15 16 16 16 15 14 14 14 13 13 13 13 12 12 12 12 11 10 9 9 9 11 13 13 11 11 12 13 12 11 10 10 12 14 15 15 16 17 17 18 17 16
13 11 9 9 10 10 10 10 10 11 12 13 12 12 12 13 13 13 13 14 15 15 16 16 15 14 13 13 12 13 13 13 15 17 18 18 16 14 13 12 13 14 15 15 15 15 15 14 14 14 13 13 13 13 12 12 12 12 13 13 12 11 10 11 12 12 11 10 10 12 12 11 9 9 10 11 13 14 15 16 17 17 18 18 16
13 12 12 12 13 13 12 11 11 11 12 12 11 11 12 12 12 12 13 13 14 14 15 15 15 14 14 12 11 10 10 11 13 14 14 13 11 11 11 12 12 13 14 14 14 14 14 14 14 13 13 13 13 13 12 12 12 12 12 12 12 11 11 11 12 11 10 8 8 9 10 10 10 10 11 12 14 15 15 16 16 16 16 17 16
12 12 13 13 14 13 11 11 11 11 11 11 11 12 12 12 12 12 12 13 13 14 14 14 14 14 14 14 11 9 9 11 12 12 11 10 10 10 10 11 12 12 13 13 13 13 14 14 14 14 14 13 13 13 12 12 12 12 12 12 11 10 10 11 10 10 10 9 8 8 9 11 12 13 13 14 15 16 15 15 15 15 15 15 15
11 11 12 13 14 13 11 11 11 11 11 12 11 11 12 12 12 12 12 13 13 13 14 14 15 14 14 13 11 9 9 11 12 12 11 12 11 11 11 11 12 12 12 12 12 13 13 14 14 14 14 14 13 13 13 12 12 11 11 12 12 11 11 11 11 10 9 9 10 10 11 11 11 12 13 14 14 14 14 14 14 15 15 15 14
13 13 13 13 14 12 11 11 11 11 12 12 12 12 12 12 12 12 12 13 13 13 14 14 15 15 14 13 12 11 11 11 12 13 13 13 12 12 12 12 12 12 13 13 13 13 13 13 13 13 13 13 13 13 13 12 12 12 11 12 11 11 11 10 10 10 9 9 9 9 10 10 10 11 12 12 13 13 13 13 13 14 14 14 14
13 13 13 13 11 11 11 12 12 12 13 13 12 12 12 11 11 11 12 13 13 13 14 14 14 14 13 13 12 12 11 11 12 13 13 13 13 12 12 12 12 13 13 12 13 13 12 13 13 13 13 13 13 13 13 12 12 12 12 12 12 11 11 10 9 9 9 9 9 9 9 9 9 10 11 12 12 12 12 12 13 13 13 13 13
13 13 13 12 11 11 12 13 12 12 12 12 12 12 11 11 11 11 12 13 13 13 13 14 14 13 13 13 12 11 11 11 12 12 13 12 12 12 12 12 12 12 12 13 13 12 13 13 13 13 13 13 13 12 12 12 12 12 12 11 12 11 10 10 9 8 8 8 8 9 9 9 9 10 11 11 12 12 12 12 12 13 13 13 14
13 12 12 12 11 12 12 12 12 12 12 12 13 13 13 12 12 12 12 13 13 12 13 13 13 12 12 12 11 10 10 11 11 11 11 12 12 12 12 12 12 12 12 12 12 12 13 13 13 13 13 12 12 12 12 12 11 11 11 11 11 11 10 10 9 8 8 8 8 7 8 8 9 10 10 11 12 12 12 12 12 13 13 13 13
12 11 11 12 12 13 12 12 12 12 12 12 13 13 13 13 12 12 12 12 12 12 12 12 11 11 12 12 11 10 11 11 11 11 11 12 12 12 11 11 11 12 12 12 12 12 12 12 12 12 12 12 12 12 12 12 12 12 11 11 11 11 10 9 9 9 8 8 7 6 6 7 9 9 10 11 11 12 12 12 12 12 13 13 13
12 11 10 11 12 12 12 12 12 11 11 11 12 13 13 12 12 12 12 12 11 11 11 11 11 11 11 11 11 11 11 11 11 11 11 11 11 11 11 11 11 11 11 11 11 11 12 12 12 12 12 12 12 12 13 13 14 13 12 11 11 10 9 8 7 7 7 7 7 7 7 8 9 10 10 10 10 10 11 11 11 12 13 13 13
13 12 11 10 11 12 12 12 12 12 11 11 12 13 13 12 11 11 11 12 11 11 10 11 11 11 11 11 11 11 11 11 11 11 11 11 11 11 11 11 11 11 11 11 11 11 11 12 12 11 12 12 13 13 13 14 14 12 10 8 8 9 9 7 6 6 6 6 7 8 8 9 10 10 10 10 9 9 10 10 11 12 12 12 12
12 11 10 10 10 11 11 11 12 13 12 12 12 12 12 11 11 11 11 11 11 10 10 10 11 11 11 11 10 10 10 11 11 11 11 11 10 10 10 10 10 9 9 10 10 11 12 13 13 13 13 12 13 12 11 11 11 10 8 7 7 8 9 8 8 8 7 6 7 8 8 9 10 9 9 9 8 8 9 10 11 12 12 12 13
12 11 11 11 11 11 11 10 11 12 12 12 12 12 12 11 11 11 10 10 10 10 10 10 10 10 10 10 10 10 10 10 10 10 10 10 10 10 9 9 8 8 9 10 12 13 14 14 15 15 14 13 13 12 9 8 8 8 8 8 8 8 8 8 9 10 9 8 8 8 8 9 9 9 9 9 9 9 10 10 11 11 11 11 12
14 14 14 13 13 12 11 10 11 11 11 11 12 12 12 11 11 11 10 10 10 10 10 10 10 10 10 10 10 10 10 10 10 9 9 9 9 9 8 7 7 8 10 11 12 12 13 13 13 14 13 12 12 11 8 7 7 8 8 8 8 9 9 9 10 10 10 9 8 7 8 9 10 9 9 10 10 11 11 11 11 12 12 11 11
16 16 16 15 14 13 12 11 10 11 11 11 12 12 12 12 11 11 11 10 10 10 10 10 10 10 10 9 9 9 9 9 9 9 9 9 9 7 6 7 8 9 10 10 10 10 10 10 10 10 9 8 8 8 6 6 6 6 7 8 9 9 9 10 10 11 11 9 8 7 8 9 10 10 10 10 10 11 11 11 11 11 11 11 11
Wind_Direction
236 231 226 223 220 219 219 219 218 219 218 217 218 219 218 215 212 208 201 202 212 218 218 218 216 212 208 203 195 192 194 197 200 203 205 207 211 214 216 216 216 218 221 222 222 223 226 228 229 231 233 236 239 240 240 241 242 244 245 246 248 246 247 250 255 268 273 271 271 272 272 273 273 272 273 276 278 279 278 278 280 284 285 287 291
237 235 230 226 223 221 219 218 217 217 216 216 217 216 216 213 210 206 202 209 219 222 220 217 214 211 207 201 193 191 195 198 200 203 205 208 212 215 216 217 218 219 221 223 224 225 226 227 228 230 232 235 238 239 241 242 243 245 245 244 248 248 246 250 255 263 271 272 271 272 270 270 271 269 269 272 275 277 277 278 279 280 281 284 287
238 235 231 228 225 222 219 217 216 215 214 214 214 213 213 211 210 208 206 210 218 221 220 217 213 208 205 201 197 195 196 199 202 204 206 208 212 216 217 217 219 221 222 224 226 227 227 229 229 228 229 232 235 237 239 241 242 244 246 245 248 251 249 250 254 260 268 272 271 269 269 269 269 269 268 269 273 275 276 276 277 277 277 280 282
238 233 230 228 225 221 219 215 212 212 211 213 213 212 211 210 209 206 203 208 215 218 219 217 211 205 201 199 198 198 198 201 204 206 207 210 214 218 219 219 220 222 224 225 227 228 229 230 231 229 228 230 232 235 236 238 239 241 245 245 247 250 251 251 253 257 263 269 269 267 268 270 269 266 267 270 272 273 274 274 274 274 275 276 278
236 232 229 227 224 220 218 215 212 212 212 213 213 210 208 207 205 202 199 203 211 212 212 210 205 201 200 197 196 198 200 202 204 207 210 213 217 220 221 222 223 224 226 226 227 229 230 231 232 230 230 230 230 232 233 234 235 238 242 245 246 249 251 251 253 256 259 264 266 266 266 267 267 264 266 270 273 274 273 272 271 272 274 274 275
234 230 227 226 225 224 220 217 216 214 212 212 209 206 205 203 199 200 198 198 203 207 205 203 201 200 200 198 196 198 200 203 206 209 212 216 219 222 223 223 225 226 228 230 230 231 231 233 234 232 232 232 232 234 236 235 235 237 240 243 246 251 254 254 255 256 258 261 265 266 265 263 263 265 266 268 272 275 276 275 274 272 273 274 274
230 226 225 226 227 226 221 216 214 211 209 207 205 202 202 200 197 198 199 198 202 205 204 202 203 202 200 198 198 199 202 206 209 211 215 219 222 223 223 223 225 227 230 233 233 233 234 235 236 235 234 234 236 238 239 237 237 239 240 244 248 251 252 254 254 254 256 259 261 261 260 260 263 266 266 266 268 269 271 275 275 272 271 271 273
227 226 225 226 227 224 219 213 209 208 206 204 201 199 197 196 196 197 200 204 207 208 206 204 203 201 198 196 197 199 205 209 210 213 218 222 224 225 223 221 224 228 232 235 235 237 239 239 239 238 238 239 240 240 239 237 239 241 240 244 248 247 246 247 248 250 251 253 254 253 256 259 261 262 263 263 263 262 262 265 269 271 271 272 274
224 224 224 225 224 220 213 207 206 206 202 199 196 195 194 192 194 199 204 208 208 209 207 203 199 197 196 197 200 204 208 210 212 216 222 225 226 225 223 222 226 231 236 239 240 241 242 242 242 242 242 243 243 243 242 241 243 246 246 246 244 240 240 241 243 245 245 246 247 248 252 255 254 255 256 256 258 260 260 262 265 270 274 277 277
219 220 223 223 217 212 204 198 198 194 191 193 191 190 193 195 199 205 207 207 206 205 204 201 199 199 201 204 207 208 211 213 216 220 223 226 228 228 228 231 235 238 242 244 244 244 244 244 245 244 244 244 243 241 241 240 242 245 247 246 242 237 236 236 237 238 239 241 244 244 247 250 249 250 253 253 256 259 259 259 263 268 273 276 275
212 212 214 213 206 202 195 190 194 192 190 193 193 194 197 199 203 206 205 204 205 204 201 200 201 205 208 211 211 212 216 221 225 225 223 225 231 234 237 241 244 246 248 247 246 247 248 248 249 248 246 245 244 242 242 240 239 242 243 243 239 236 234 232 232 234 236 239 241 241 244 248 248 248 251 254 255 255 255 254 258 264 268 270 274
199 205 207 211 207 197 192 193 201 203 201 200 200 201 201 201 203 203 202 203 203 202 202 203 206 212 216 220 221 222 224 229 231 229 228 233 238 241 244 247 247 247 249 249 249 250 250 250 251 251 250 250 250 249 249 246 244 243 243 243 242 240 237 234 231 231 233 236 239 240 241 246 249 249 249 252 253 252 252 253 255 259 261 262 267
194 234 229 218 212 207 207 211 210 209 210 205 200 201 202 204 204 202 200 200 200 201 206 210 217 224 228 231 232 231 232 236 236 234 236 242 245 246 248 249 247 245 245 246 248 249 249 248 248 249 251 253 252 251 252 251 250 248 247 246 245 244 243 241 238 236 233 232 234 238 241 245 247 248 246 247 249 249 250 252 252 254 256 258 261
295 290 273 257 263 262 255 242 220 207 207 204 202 206 207 206 204 200 197 198 201 206 215 223 230 236 239 241 241 239 241 244 242 239 243 247 249 251 252 253 252 250 248 245 244 246 246 244 243 244 248 250 250 250 250 251 250 250 249 246 244 243 243 244 244 243 242 240 236 237 242 245 246 249 250 248 248 250 251 251 249 249 252 256 260
310 301 289 285 284 279 266 247 221 203 205 209 211 213 210 205 201 199 200 205 213 221 229 235 241 246 248 247 245 245 248 250 247 245 247 250 253 254 255 254 253 253 251 250 250 250 248 245 244 244 244 245 246 247 248 248 248 247 246 244 243 242 242 242 242 244 245 246 245 244 245 246 246 248 250 249 249 250 251 250 249 250 254 259 263
300 294 291 289 287 281 263 238 214 204 211 218 217 212 208 205 203 203 210 219 227 235 240 244 248 251 253 251 249 249 252 253 249 247 250 253 255 256 255 254 253 253 253 253 253 252 248 247 247 246 243 243 244 245 245 245 243 241 242 243 242 241 242 243 242 243 243 244 246 247 248 247 246 247 246 246 246 247 247 246 245 246 254 259 259
290 286 289 286 282 278 264 238 222 217 222 225 219 211 209 211 212 217 227 232 237 244 250 252 253 254 255 253 252 252 255 255 252 249 251 254 256 257 255 254 253 254 253 254 253 252 249 248 248 248 248 248 248 249 249 248 242 236 236 239 240 240 243 245 245 247 249 250 250 250 249 250 251 251 250 249 247 241 235 233 236 241 247 251 249
286 284 286 278 274 276 267 250 240 233 232 231 223 217 217 220 225 232 239 244 248 252 255 255 254 254 255 255 254 253 256 258 256 252 252 255 256 255 255 254 254 254 255 255 253 251 250 249 247 246 248 251 252 252 253 252 247 239 234 234 234 236 241 246 246 248 252 255 256 256 256 255 256 257 257 256 254 245 233 230 233 235 235 236 240
292 289 285 273 274 279 274 262 252 244 241 237 230 225 226 230 235 241 248 253 254 253 251 247 246 247 250 255 256 254 256 260 260 256 254 255 256 254 253 253 253 254 255 256 254 252 251 250 249 248 248 251 252 253 253 251 246 240 235 231 230 232 238 243 245 246 249 252 255 258 259 259 259 260 260 259 257 253 247 244 241 233 226 232 239
305 298 291 283 280 280 277 269 258 251 248 242 236 234 235 238 241 247 253 255 252 248 243 239 239 239 241 248 254 256 259 264 267 265 260 256 256 256 253 251 252 253 254 255 255 253 252 251 249 249 250 252 253 255 257 255 249 243 238 234 233 235 239 241 240 240 242 245 250 254 257 260 261 262 262 260 256 253 251 248 245 237 232 238 240
309 305 299 289 284 279 275 271 263 255 250 245 241 241 242 245 249 253 256 253 247 245 242 238 239 244 246 250 255 259 262 267 272 271 265 259 257 257 254 251 252 253 253 253 254 253 252 252 251 250 252 254 256 258 260 260 256 251 243 238 239 242 242 240 238 237 236 238 242 245 249 252 256 258 260 260 258 254 250 246 244 241 239 239 237
316 314 303 291 287 281 276 273 267 259 252 246 245 247 250 254 256 255 254 250 247 247 246 245 248 252 256 257 258 262 265 268 272 274 271 265 260 258 257 254 253 253 251 250 251 253 253 253 252 252 253 255 256 257 260 262 263 261 256 248 247 248 245 240 236 232 230 231 232 233 235 238 241 244 247 249 251 250 248 246 244 241 240 240 239
323 314 304 298 295 289 284 280 272 264 255 250 249 252 254 257 259 259 256 252 249 250 252 253 255 257 260 260 258 260 264 267 271 274 276 273 266 261 260 259 256 254 252 249 250 253 255 254 254 255 256 257 257 258 261 264 265 265 263 258 255 254 251 246 237 228 223 222 224 226 227 229 232 236 237 238 240 239 239 241 242 242 240 241 241
323 318 314 309 304 299 292 285 275 265 258 254 255 255 254 256 259 260 257 252 249 251 253 252 249 250 255 257 256 256 259 265 270 273 276 278 274 267 264 264 262 259 257 255 254 254 255 255 255 255 256 256 257 259 263 265 265 265 265 264 263 263 261 255 245 232 225 219 218 222 226 228 231 234 234 234 235 233 229 231 238 241 240 241 241
324 322 316 310 307 301 295 289 279 270 262 258 259 259 256 256 257 254 249 246 245 249 251 248 244 245 248 252 255 253 251 257 265 270 274 279 280 274 268 265 264 262 260 259 258 257 258 259 259 260 261 262 264 266 269 269 269 271 272 272 270 268 263 257 246 232 229 227 223 224 226 228 230 232 231 229 229 227 222 221 228 235 238 241 243
322 319 313 310 307 301 295 290 282 276 270 264 261 260 254 249 249 248 246 244 244 246 249 248 246 247 248 251 255 256 252 250 256 264 270 276 281 281 278 272 268 264 261 260 259 258 259 261 264 267 269 270 271 271 271 269 269 270 270 268 265 257 250 247 240 232 232 234 234 232 230 229 229 231 230 228 226 225 220 216 220 228 234 239 242
318 315 311 307 303 299 296 289 280 277 276 270 266 264 259 251 246 246 247 246 244 244 245 245 245 245 247 251 253 256 257 252 250 254 261 269 277 282 283 281 278 274 267 263 262 262 261 261 262 264 266 268 268 267 267 266 264 262 261 258 255 250 245 242 239 237 236 235 234 235 234 233 233 232 228 224 222 222 221 219 220 225 229 233 237
314 309 304 301 296 291 288 284 277 273 270 267 262 258 256 251 245 245 245 242 241 243 245 247 248 246 246 251 255 257 259 258 252 248 252 261 269 273 274 276 276 274 272 270 268 267 266 263 260 258 259 260 260 259 258 257 256 253 251 250 249 249 247 243 241 241 240 235 233 234 233 232 233 233 226 218 215 218 221 223 228 232 233 234 236
313 308 303 297 290 280 278 278 275 273 271 267 261 258 258 255 252 252 253 250 249 250 250 250 253 251 248 250 252 253 258 263 264 262 262 264 265 262 262 266 268 270 273 274 269 262 259 255 250 248 247 247 246 246 246 246 247 247 246 245 244 246 245 241 239 239 237 234 232 232 232 232 232 229 221 214 213 218 224 228 233 236 236 237 240
312 305 298 292 288 290 290 285 279 278 278 275 272 270 269 265 259 257 261 263 263 259 254 252 256 254 250 252 255 255 262 273 279 280 277 275 271 266 265 267 267 268 271 271 263 250 242 239 239 241 241 240 239 239 239 239 240 240 240 239 237 237 237 235 234 233 233 232 231 229 227 229 229 223 216 215 219 224 227 228 229 228 226 228 234
310 303 303 302 302 301 295 290 286 283 280 279 278 279 280 277 269 261 259 262 264 262 257 257 261 260 256 259 263 265 269 275 279 279 279 280 281 280 278 278 276 274 276 277 270 257 245 237 236 239 240 239 238 237 236 236 237 236 235 234 232 231 231 231 231 231 229 228 228 227 224 224 224 221 217 217 219 220 220 220 219 218 217 219 223
307 304 307 306 304 301 294 288 285 281 278 278 278 279 282 286 286 278 265 259 260 263 265 267 270 271 269 269 270 273 274 275 275 276 280 283 284 284 283 283 283 283 282 281 275 267 260 253 246 243 241 240 240 238 235 234 235 233 230 230 229 228 228 229 230 231 229 225 224 225 226 224 222 220 218 216 215 213 212 212 213 213 214 217 219
311 307 304 301 302 301 295 289 284 280 280 281 280 279 280 283 288 293 289 279 272 268 268 269 273 277 280 279 279 279 280 283 284 284 284 282 282 284 286 286 285 285 282 276 270 266 264 261 258 255 252 250 249 248 243 238 236 235 233 232 231 230 231 232 230 229 229 227 226 227 229 227 223 220 218 216 214 212 212 212 211 211 212 215 219
324 317 309 304 303 298 290 287 285 283 283 284 281 280 279 279 284 289 292 294 290 281 273 270 270 273 277 280 282 282 283 288 290 287 284 283 284 288 291 290 286 283 280 274 269 266 264 262 261 262 263 262 262 263 259 251 246 243 241 240 239 236 234 232 227 222 222 224 223 223 224 221 218 216 215 212 211 212 213 214 212 211 211 213 216
332 326 316 310 307 297 284 281 282 280 281 282 280 280 280 280 281 281 282 286 289 288 284 278 272 270 272 274 278 281 283 286 288 287 286 287 288 289 288 284 281 279 275 270 267 266 265 265 265 265 265 266 265 264 263 260 256 253 249 248 246 240 233 229 226 222 218 216 217 219 220 217 215 213 212 211 212 212 213 215 215 215 217 217 217
328 321 311 305 302 294 284 281 279 275 276 277 277 278 279 276 273 274 274 276 278 282 285 285 283 280 275 271 272 277 279 279 281 284 285 286 287 287 284 277 272 270 268 266 266 266 265 266 267 265 263 264 262 259 256 253 251 250 248 244 240 231 223 222 226 227 224 220 221 223 222 218 215 213 214 218 219 218 219 222 222 223 223 222 220
317 308 297 292 291 290 286 282 278 274 274 275 274 272 270 267 265 265 268 270 272 276 281 287 290 291 284 276 274 276 276 276 280 284 286 286 285 281 274 267 264 264 264 264 265 267 267 268 268 267 267 266 265 261 259 255 252 250 248 244 239 232 225 224 225 224 220 218 221 225 223 220 218 216 218 223 224 224 227 229 228 229 229 225 223
315 308 303 298 295 293 288 280 277 277 274 271 268 265 264 264 264 263 265 267 269 272 276 282 287 288 288 287 285 282 281 283 286 285 284 283 277 266 258 256 256 257 260 261 262 265 267 268 268 268 269 268 267 264 262 260 256 253 249 244 240 236 234 234 231 223 214 210 214 219 222 225 226 225 226 230 231 230 231 230 227 228 228 225 223
313 309 307 304 302 298 289 278 277 276 271 267 265 264 263 264 263 263 265 267 268 270 273 276 278 280 284 288 289 286 286 287 287 286 285 281 274 264 259 258 257 258 260 262 262 263 264 265 267 267 267 267 266 264 262 260 258 256 252 248 243 236 232 231 228 220 215 214 217 220 222 225 227 227 228 230 231 231 229 227 225 225 226 225 225
308 304 300 300 302 299 288 277 274 272 270 270 269 266 264 264 263 264 267 268 268 270 271 271 272 276 281 283 280 278 281 282 282 283 283 280 277 271 267 266 267 268 268 268 267 266 266 267 267 267 267 267 265 264 263 261 259 257 254 251 246 240 234 230 226 220 217 217 219 222 223 223 224 226 227 228 230 230 228 226 225 225 226 226 225
305 300 297 297 298 296 288 277 273 272 272 271 269 266 265 264 263 265 267 266 266 269 270 269 270 275 278 277 273 272 273 276 279 281 280 279 279 276 272 271 272 272 272 272 272 271 272 272 272 271 271 270 268 267 266 263 260 258 256 252 248 245 241 235 228 221 219 220 221 222 223 223 224 226 227 230 231 231 229 228 227 227 227 226 224
299 297 297 295 291 288 283 278 276 277 274 269 265 264 264 264 265 266 266 265 265 268 269 270 272 276 277 277 277 276 274 273 274 276 277 276 276 274 273 273 273 273 273 274 275 276 276 277 277 276 274 273 272 270 268 266 264 262 258 254 250 246 241 237 231 222 217 220 225 225 224 226 229 231 232 232 232 231 231 230 228 227 227 226 224
298 294 295 291 285 280 279 278 277 276 272 268 266 265 266 267 267 265 264 265 266 266 267 271 275 278 280 281 281 277 272 269 269 270 272 273 274 274 275 275 275 276 277 277 278 279 279 279 279 279 277 276 275 274 271 269 267 266 263 258 254 248 241 238 236 225 215 217 224 223 220 222 231 237 237 235 232 232 232 231 230 229 229 228 227
299 291 289 288 285 280 277 275 272 270 270 271 272 273 271 268 264 262 263 264 264 265 267 271 274 277 280 283 281 274 270 269 270 271 272 274 274 275 276 278 279 280 281 281 281 281 282 281 281 281 280 279 279 277 275 273 270 267 264 260 256 250 242 236 237 236 231 229 227 223 219 221 227 233 236 235 232 231 231 230 230 230 229 228 227
295 286 285 287 285 282 279 276 273 272 273 273 273 273 270 265 261 261 263 264 265 267 270 271 272 275 277 279 277 275 274 274 275 276 276 277 278 279 279 281 283 284 285 285 285 285 284 283 283 284 284 284 284 282 279 277 274 270 265 261 259 255 247 241 241 242 237 227 224 227 231 233 232 231 233 233 230 229 230 231 231 231 230 229 228
297 288 285 283 281 281 281 279 275 274 273 272 272 273 272 269 265 263 264 265 267 269 272 273 272 273 275 275 275 275 276 276 278 279 279 279 281 282 283 285 288 288 288 289 288 288 287 286 285 286 288 289 289 287 284 284 282 275 266 259 255 252 250 248 243 233 221 214 219 231 241 245 243 237 232 230 230 230 232 233 232 232 232 230 229
303 295 288 280 278 279 279 279 280 278 274 271 271 272 272 272 270 267 266 268 269 269 270 272 272 272 274 275 275 276 277 278 279 281 282 283 283 284 286 289 290 289 290 291 292 294 293 290 289 291 293 294 294 291 285 283 282 274 262 253 248 247 248 244 226 211 206 211 224 235 242 247 246 241 234 229 229 232 236 236 235 234 233 232 232
299 290 283 278 278 278 275 276 281 281 277 274 274 273 273 273 272 270 270 270 271 270 269 270 272 274 275 276 276 278 280 281 281 282 284 285 286 287 288 289 291 294 297 299 300 299 296 294 291 291 291 294 296 292 281 275 273 269 260 250 244 248 253 247 229 220 223 228 233 238 241 241 240 240 237 231 228 231 236 237 235 235 234 233 234
295 290 284 281 282 281 278 278 280 280 279 279 279 278 277 275 273 272 273 272 271 272 272 273 275 277 277 279 280 281 281 282 284 285 287 288 289 290 289 291 298 304 305 303 302 299 297 295 292 288 285 287 291 287 275 263 265 266 262 257 255 259 263 256 240 236 241 244 242 240 239 237 235 236 237 236 234 235 237 238 239 239 239 237 236
297 295 291 287 285 283 280 279 279 279 280 281 280 280 280 279 277 278 277 276 276 277 277 278 280 280 280 282 282 282 282 285 287 287 290 291 289 289 291 297 305 308 306 302 301 301 301 301 298 291 285 283 283 279 270 263 266 267 265 265 267 268 267 257 244 239 242 246 245 240 236 235 234 234 234 235 236 235 236 238 239 240 240 240 240
301 300 296 292 290 288 285 282 281 281 283 283 282 282 282 282 282 283 282 282 283 283 283 283 284 283 282 283 282 282 285 289 289 289 291 291 289 290 297 304 306 307 304 302 302 304 307 310 308 301 291 282 279 278 275 271 271 273 274 274 272 271 269 263 251 242 240 242 243 239 237 237 236 234 234 235 235 235 237 238 238 239 240 242 243
Height
754 754 754 754 754 755 757 758 760 762 763 765 766 768 770 772 774 775 777 777 778 780 782 784 786 789 791 794 796 799 801 803 805 807 809 810 812 813 814 815 815 816 818 819 820 821 821 822 823 824 825 825 826 826 826 827 827 826 827 826 826 826 825 824 822 817 815 817 817 816 816 815 814 814 813 812 811 810 809 808 807 806 805 803 802
751 751 751 751 751 752 753 755 757 758 760 761 763 765 766 768 770 772 773 774 774 776 778 780 783 785 787 790 792 795 797 799 801 803 805 806 808 809 810 811 812 813 814 815 816 817 818 819 819 820 821 822 822 823 823 823 824 823 823 823 823 822 822 822 820 817 814 814 815 814 814 813 812 811 811 810 809 808 807 806 805 804 802 801 799
747 748 748 749 749 750 751 752 754 755 756 758 759 761 763 765 767 768 769 770 771 773 775 777 779 782 784 786 788 791 793 796 798 799 801 802 804 806 806 807 808 809 810 811 812 814 814 815 816 817 818 818 819 820 820 820 820 820 820 820 820 819 820 819 818 816 813 811 812 812 811 811 810 809 808 807 806 805 804 803 802 801 800 799 797
744 745 745 746 747 748 748 749 750 751 753 754 756 758 760 761 763 764 766 767 768 770 772 774 776 778 781 783 785 787 790 792 794 796 797 799 800 802 803 804 804 805 806 807 809 810 811 811 812 813 814 815 815 816 816 816 817 817 817 817 817 816 817 817 815 814 812 809 809 810 809 808 807 806 806 805 804 803 801 800 799 798 797 796 795
742 742 743 744 744 745 746 747 748 749 750 752 753 755 756 758 760 761 763 764 765 767 769 771 773 775 777 779 781 784 786 788 791 792 794 796 797 798 799 800 801 802 803 804 805 806 807 808 808 810 810 811 811 812 812 813 813 813 813 813 814 814 813 813 813 812 810 808 807 807 807 806 804 804 803 802 801 800 799 798 797 795 794 793 792
739 740 740 741 742 743 744 744 745 746 748 749 750 752 753 755 757 758 760 762 763 764 766 768 770 771 773 776 778 781 783 785 787 789 791 793 793 795 795 796 797 798 799 800 801 802 803 804 805 806 806 806 807 808 808 809 809 809 810 810 811 811 810 810 810 809 808 806 805 804 803 803 802 801 801 800 799 797 796 795 794 793 792 790 789
737 738 738 739 740 741 741 742 744 745 746 747 748 749 751 752 754 755 757 759 760 762 763 765 767 769 771 773 775 778 780 782 784 786 788 789 790 791 792 793 794 795 796 797 798 798 799 800 800 801 802 802 803 804 805 805 805 805 806 807 807 808 807 807 807 806 805 804 803 801 800 800 799 798 797 797 796 795 794 792 791 790 789 788 786
736 736 737 738 738 739 740 741 742 743 744 745 746 747 749 750 752 753 755 757 758 759 761 763 765 767 769 771 773 775 777 779 781 783 784 785 786 787 788 789 790 791 792 793 794 795 795 796 796 797 797 798 798 799 800 801 802 801 801 803 804 804 803 803 803 803 802 801 799 798 797 797 796 795 794 794 793 791 791 790 788 787 786 785 784
734 735 736 737 737 738 739 740 740 741 742 743 744 745 747 749 750 751 753 754 756 757 759 761 763 765 767 769 771 773 775 777 778 780 781 782 782 784 785 785 786 787 788 789 790 790 791 791 792 792 793 794 794 795 795 796 797 797 797 798 799 800 799 799 799 799 798 797 796 795 794 793 792 792 791 790 789 788 788 787 785 784 784 782 781
733 734 735 736 737 738 738 738 739 739 740 741 743 744 745 747 748 749 751 752 754 756 757 759 761 762 764 767 769 771 772 774 775 776 777 778 779 780 781 782 783 784 784 785 785 786 786 787 787 788 789 790 790 791 791 791 791 791 792 793 794 795 795 795 795 794 793 792 791 791 790 788 788 788 787 786 786 786 785 784 783 782 782 780 778
732 733 735 735 736 737 737 737 737 738 739 740 741 743 744 745 746 748 749 751 752 754 755 757 759 760 762 764 766 768 769 770 772 773 775 776 776 776 777 778 779 779 780 781 781 781 782 782 783 783 784 785 785 786 786 786 786 786 787 788 789 789 790 790 789 789 789 788 787 787 786 784 784 784 783 783 783 783 782 781 780 780 779 778 776
732 733 734 735 735 735 736 736 737 737 738 739 740 741 742 743 745 746 748 749 751 752 754 755 757 759 760 762 763 765 766 767 769 770 772 773 773 774 774 774 774 774 775 776 776 776 777 777 778 778 778 779 780 780 780 780 781 781 782 783 784 784 784 784 784 784 784 783 783 782 782 781 780 780 780 780 780 780 779 778 778 777 776 775 774
732 733 733 734 734 735 735 735 736 737 737 738 739 740 741 742 744 745 746 748 749 750 752 753 755 757 758 759 761 762 763 764 766 767 768 769 770 771 771 771 771 770 770 770 770 771 772 772 773 772 771 772 773 774 774 774 775 775 777 778 778 778 778 778 778 778 778 778 777 777 777 777 777 776 777 778 777 777 776 775 775 774 773 772 771
732 732 733 734 734 734 735 735 735 736 736 737 738 739 740 741 742 744 745 746 747 749 750 752 753 754 756 757 758 759 760 761 763 764 765 766 766 767 767 767 767 767 766 766 766 766 767 767 767 766 766 767 767 767 768 768 769 770 771 772 772 772 772 772 773 774 774 773 771 770 771 772 772 772 773 774 774 773 773 772 771 771 770 769 768
732 732 733 733 733 733 734 734 735 735 736 736 737 738 739 740 741 743 744 745 746 748 749 750 751 752 753 754 755 755 756 758 759 760 761 762 763 763 764 763 763 763 762 762 762 763 763 763 762 761 761 761 761 761 761 762 763 764 764 765 765 765 766 766 767 768 768 768 767 765 766 767 767 767 769 770 769 769 769 768 768 767 766 766 765
732 732 732 732 733 733 733 733 734 734 735 736 736 737 738 739 740 742 743 744 745 746 747 748 748 749 750 750 751 752 752 754 756 757 758 759 759 760 760 759 759 758 758 758 758 758 759 759 758 757 756 756 756 756 756 756 757 757 757 758 758 759 759 759 761 761 761 760 760 760 760 761 761 762 762 763 763 763 765 764 763 764 763 762 761
731 731 732 732 732 732 732 733 733 734 734 735 736 737 737 738 740 741 742 743 743 744 745 745 746 746 747 747 748 748 749 751 752 753 754 755 756 756 756 755 755 754 754 754 754 754 754 754 754 753 752 752 752 752 753 752 751 750 751 752 753 753 753 753 754 755 754 754 754 754 754 754 755 755 755 756 756 758 759 758 757 759 759 757 756
731 731 731 731 731 731 732 732 733 733 734 734 735 736 737 738 739 739 740 741 742 742 743 743 743 743 743 744 745 745 746 747 748 750 750 751 752 752 752 751 751 750 749 750 750 749 749 748 749 749 747 747 747 747 747 748 747 746 746 746 748 747 747 748 749 749 749 750 749 749 749 748 749 749 749 749 751 752 752 751 751 753 753 751 751
730 731 730 730 730 730 731 731 732 732 733 733 734 735 736 737 738 738 739 739 740 741 741 741 741 741 741 741 741 742 742 743 744 746 747 748 748 748 748 748 746 746 746 746 745 745 744 743 743 743 743 742 742 742 741 742 742 742 741 742 741 740 740 742 743 744 744 744 744 743 743 743 743 743 743 744 745 746 746 746 746 747 746 746 747
730 730 730 730 730 729 730 731 731 731 732 733 734 734 735 736 736 737 737 738 738 739 739 739 739 739 739 739 738 739 739 739 740 741 743 743 744 744 744 743 742 742 742 742 741 740 740 739 738 738 738 737 737 736 735 736 736 736 736 736 735 734 735 736 737 738 738 738 738 738 737 737 737 737 737 738 738 739 740 741 742 742 742 742 743
730 729 729 729 729 729 729 730 730 731 731 732 733 733 734 735 735 735 736 736 737 737 737 737 736 736 736 736 736 735 735 735 736 737 738 739 740 740 740 739 738 738 738 738 737 736 735 734 733 733 733 733 732 731 730 730 730 730 730 729 728 729 730 731 731 732 732 732 732 732 733 733 733 732 732 732 733 733 734 735 737 738 738 739 739
729 729 729 729 728 729 729 729 729 730 730 731 731 732 732 733 733 734 734 734 735 734 734 734 734 734 733 733 732 732 732 732 732 732 734 735 735 736 735 734 734 734 733 733 732 731 730 730 729 728 728 728 728 727 725 725 724 724 724 723 723 723 724 725 725 726 726 726 727 727 727 728 728 728 728 727 727 728 729 729 731 732 733 734 735
729 728 728 728 728 728 728 728 729 729 729 730 730 730 731 731 731 732 732 732 732 732 732 732 731 731 730 730 729 729 728 728 728 728 729 730 730 731 731 730 730 730 729 728 727 726 726 725 724 724 724 724 723 721 720 720 719 719 719 718 718 719 719 719 719 719 719 720 721 721 721 722 723 723 723 723 723 723 723 724 726 727 728 729 730
728 728 728 727 727 727 727 727 728 728 728 728 729 729 730 729 730 730 730 730 730 730 729 729 728 728 727 726 726 725 725 725 724 724 725 725 726 726 726 725 725 725 724 723 722 722 721 721 720 720 719 718 717 716 715 715 715 714 714 714 714 714 714 713 713 713 713 714 714 715 715 716 717 717 717 718 719 719 719 720 722 723 724 725 726
727 727 727 727 727 726 726 726 726 726 727 727 727 728 728 728 728 728 728 728 727 727 727 726 725 725 724 723 722 722 722 722 721 720 721 721 721 721 721 721 720 720 720 718 718 717 717 716 716 715 714 713 712 712 712 711 711 711 711 711 711 710 710 710 710 710 710 710 710 710 710 711 712 712 713 715 715 715 715 717 718 719 721 722 722
727 727 726 726 726 725 725 725 725 725 725 725 725 726 726 726 726 726 726 725 725 724 724 723 722 722 721 720 720 719 719 719 718 717 717 717 716 716 716 716 716 716 715 714 713 713 713 712 712 711 710 709 709 709 708 707 707 707 707 707 707 707 707 707 708 708 707 707 707 707 707 708 709 709 710 711 712 711 712 714 715 716 717 718 719
726 726 725 725 725 724 724 724 724 724 723 723 723 723 723 723 723 723 723 722 722 721 721 720 720 719 718 717 717 716 716 715 714 714 714 713 712 712 712 711 711 711 710 709 709 709 708 708 707 706 706 705 705 705 704 704 704 703 703 703 703 703 704 704 704 704 704 704 704 704 705 705 706 706 707 707 708 708 709 710 711 712 714 715 715
725 725 725 724 724 723 723 723 722 722 722 722 721 721 721 721 720 720 719 719 719 719 718 717 716 716 715 715 714 713 712 711 711 711 710 709 709 708 707 706 706 706 705 704 704 704 703 703 702 702 702 701 700 700 699 699 699 698 699 699 699 699 700 700 700 700 700 700 700 701 701 702 702 703 703 703 704 705 706 707 708 709 710 711 711
725 724 724 723 723 722 722 721 721 721 720 720 719 718 718 718 717 716 716 716 716 715 715 714 713 713 713 712 711 711 709 708 708 708 707 706 705 704 703 702 701 700 700 699 699 699 698 698 698 697 696 696 695 695 694 694 694 693 694 694 694 694 695 695 695 696 696 696 696 697 698 698 698 699 700 700 700 702 703 704 704 705 707 707 707
724 724 723 723 722 721 721 720 720 719 719 718 717 716 715 715 714 713 713 712 712 712 711 711 710 710 709 708 707 707 705 704 704 704 703 702 701 700 699 698 697 696 695 695 695 694 693 692 692 692 691 691 690 689 688 688 688 688 688 689 689 689 690 690 690 691 691 692 692 693 694 694 694 695 696 696 697 698 700 700 701 702 703 703 703
724 723 722 722 721 720 720 719 719 718 717 716 716 715 713 712 711 710 710 709 709 708 708 707 707 707 706 704 703 702 701 700 700 699 698 697 697 696 696 695 694 693 693 693 692 690 688 687 686 686 686 685 684 683 683 683 683 682 683 683 683 684 684 684 685 686 686 687 688 689 689 690 690 691 692 692 693 695 696 697 698 698 699 699 700
724 722 722 721 720 720 719 718 717 717 716 715 714 713 712 710 709 708 707 707 706 706 705 705 704 703 703 701 700 699 698 697 696 695 694 693 692 692 691 690 690 690 690 689 687 685 684 682 681 680 680 679 678 677 677 677 677 677 677 677 677 678 678 678 679 681 681 682 683 684 685 685 686 687 688 689 690 691 692 693 694 694 695 696 696
722 722 721 720 719 719 718 717 716 715 714 714 713 712 711 709 707 706 705 704 704 703 702 702 701 700 699 698 696 695 694 694 693 692 691 689 688 687 687 687 686 686 686 685 682 680 679 678 677 676 675 674 673 673 672 672 672 672 672 672 672 672 673 674 675 676 677 677 679 680 681 682 682 683 684 685 686 687 688 689 689 690 691 692 692
721 721 720 719 718 717 716 716 715 714 713 712 711 710 709 708 707 705 703 702 700 699 698 698 697 696 695 693 692 692 691 690 690 688 687 686 686 685 684 683 682 681 681 680 678 677 676 674 673 673 672 671 670 670 669 669 669 669 669 669 669 669 670 671 671 672 673 674 675 676 678 678 679 680 681 681 682 683 684 685 686 686 687 688 688
720 719 718 717 717 716 715 714 713 712 711 711 710 709 708 706 705 704 703 701 699 696 695 694 693 693 691 690 689 688 687 686 686 685 684 684 683 683 682 680 679 678 677 676 675 674 673 672 671 671 670 669 669 668 668 668 668 667 667 667 668 668 668 669 669 670 671 672 672 673 674 675 676 677 678 678 679 680 680 681 682 682 683 684 685
719 718 717 716 715 714 714 713 711 710 710 709 708 707 706 704 704 702 700 699 697 695 693 691 690 689 688 687 686 685 684 683 683 682 682 681 681 680 679 677 676 675 675 674 673 672 671 670 669 669 668 668 667 667 666 666 666 666 666 666 666 666 666 667 667 668 668 669 670 670 672 672 673 674 675 675 676 676 677 678 678 679 680 680 681
718 717 716 715 714 713 712 711 709 708 707 706 705 705 703 702 701 700 698 697 695 693 691 689 687 687 685 684 683 682 681 681 680 679 679 678 678 677 676 675 674 674 672 672 671 670 669 669 668 667 667 666 666 665 664 664 664 663 664 664 664 663 664 664 664 665 665 666 667 668 669 669 670 671 672 672 673 673 674 674 675 675 676 677 677
716 715 714 713 712 711 710 708 707 706 705 704 703 702 701 700 698 697 696 694 693 691 689 687 686 685 683 682 681 680 679 678 677 676 676 675 674 674 673 672 672 671 670 670 669 668 668 667 666 666 665 664 664 663 663 662 662 662 661 662 661 661 661 662 662 662 663 663 664 665 666 667 667 668 669 669 670 670 671 671 672 672 673 674 674
714 713 712 711 710 709 707 706 705 704 703 702 701 699 698 697 696 694 693 691 690 689 687 685 684 682 681 680 679 678 677 676 675 674 673 672 672 671 671 670 669 669 668 668 667 666 666 665 664 664 663 662 662 662 661 661 660 660 660 660 659 659 659 660 660 660 661 661 662 663 663 664 665 666 666 667 667 667 668 668 669 669 670 670 671
713 712 710 709 708 707 705 704 703 702 701 699 698 697 696 694 693 692 690 689 687 686 684 683 681 679 678 678 677 676 676 674 673 672 671 670 669 669 668 668 667 666 666 665 665 664 663 663 662 662 661 660 660 660 659 659 659 658 658 658 658 658 658 658 658 659 659 659 660 661 661 662 663 663 664 664 664 665 665 665 666 667 667 668 668
712 710 709 707 706 705 703 702 701 700 699 697 696 695 693 691 690 689 687 686 684 683 681 680 678 677 676 675 675 674 674 672 671 670 669 668 668 667 666 665 665 664 664 663 662 662 661 661 660 660 659 658 658 658 657 657 657 657 657 656 656 656 656 656 656 657 657 658 659 659 660 660 661 661 662 662 663 663 663 664 664 665 665 666 666
710 708 707 706 704 703 702 700 699 697 696 695 693 692 690 689 688 686 685 683 682 680 679 677 675 674 673 673 672 672 671 670 669 668 667 666 666 665 664 664 663 662 662 661 660 660 659 659 658 658 657 657 656 656 656 655 655 655 655 655 655 655 655 655 655 655 655 656 657 657 658 659 659 660 660 661 661 661 662 662 662 663 663 664 664
708 707 705 704 703 701 700 698 696 695 694 692 691 689 688 686 685 683 682 681 679 678 676 675 673 672 671 670 670 669 668 668 667 666 665 664 664 663 662 662 661 660 660 659 659 658 658 657 657 656 656 655 655 654 654 654 654 653 653 653 653 653 653 653 653 654 654 654 655 656 656 657 658 658 659 659 659 660 660 660 661 661 661 662 662
707 705 704 702 701 699 697 696 694 693 691 689 688 686 685 684 682 680 679 678 676 675 674 672 671 670 669 668 667 667 666 665 664 664 663 662 662 661 660 660 659 659 658 657 657 657 656 656 655 654 654 654 653 653 653 652 652 652 652 651 651 651 651 651 652 652 652 653 653 654 655 655 656 656 657 657 657 658 658 658 659 659 659 659 659
705 704 702 700 699 697 695 693 692 690 688 687 685 683 682 681 679 678 677 675 674 673 671 670 669 668 667 666 665 664 664 663 662 662 661 660 660 659 659 658 658 657 656 656 656 655 655 654 653 653 653 652 652 651 651 651 650 650 650 650 650 650 650 650 650 650 651 651 652 653 653 654 654 654 655 655 655 656 656 656 656 657 657 657 657
703 701 700 698 696 694 693 691 689 688 686 684 683 681 680 678 677 675 674 673 672 671 669 668 667 666 665 664 663 662 662 661 660 660 659 659 658 658 657 657 656 656 655 655 654 654 653 653 652 652 651 651 650 650 649 649 648 648 648 648 648 648 648 649 649 649 650 650 650 651 652 652 653 653 653 653 654 654 654 654 655 655 655 655 655
700 699 698 696 694 692 690 688 687 685 684 682 680 679 677 675 674 673 672 670 669 668 667 666 665 664 663 662 661 661 660 660 659 658 658 657 656 656 656 655 655 654 654 654 653 652 652 651 651 650 650 649 649 648 647 647 647 647 646 647 647 647 647 647 647 648 648 649 649 650 650 651 651 651 651 652 652 652 652 653 653 653 653 653 653
698 697 695 694 692 690 688 686 685 683 681 679 678 676 674 673 672 671 669 668 667 666 665 664 663 662 661 660 660 659 658 658 657 657 656 655 655 655 654 654 654 653 653 652 652 651 651 650 649 649 648 647 647 646 646 645 645 645 645 645 645 645 645 646 646 646 647 647 648 648 649 649 650 650 650 650 651 651 651 651 651 651 651 651 651
697 695 693 691 690 688 686 684 682 680 679 677 675 674 672 671 669 668 667 666 665 664 663 662 661 660 659 659 658 657 657 656 655 655 655 654 654 654 653 653 653 652 652 651 651 650 649 648 648 647 646 645 645 645 644 644 644 644 644 644 644 644 644 644 645 645 646 646 646 647 647 648 648 648 648 649 649 649 649 649 649 649 649 648 648
694 693 691 689 687 685 684 682 680 678 677 675 673 672 670 669 667 666 665 664 663 662 661 660 659 659 658 657 657 656 655 655 654 654 653 653 653 652 652 652 651 651 651 650 649 648 648 647 645 645 644 643 643 643 643 643 643 642 642 643 643 643 643 643 643 644 644 644 645 645 646 646 646 646 647 647 647 647 647 647 647 647 647 646 646
692 690 688 686 685 683 681 680 678 676 675 673 672 670 668 667 666 665 663 662 661 660 659 659 658 657 656 656 655 654 654 653 653 653 652 652 652 651 651 651 651 650 649 649 648 647 646 645 644 643 642 642 642 641 641 641 641 641 641 641 641 641 641 641 642 642 643 643 644 644 644 644 645 645 645 645 645 645 645 645 645 645 645 645 645